Regional Weather Roundup
Issued by NWS

Home | Current Version | Previous Version | Graphics & Text | Print | Product List | Glossary On
Versions: 1 2 3 4 5 6 7 8 9 10 11 12 13 14 15 16 17 18 19 20 21 22 23 24 25 26 27 28 29 30 31 32 33 34 35 36 37 38 39 40 41 42 43 44 45 46 47 48 49 50
000
ASUS43 KMKX 220511
RWRWI

WISCONSIN REGIONAL WEATHER ROUNDUP
NATIONAL WEATHER SERVICE MILWAUKEE/SULLIVAN WI
1200 AM CDT MON SEP 22 2014

NOTE: "FAIR" INDICATES FEW OR NO CLOUDS BELOW 12,000 FEET WITH NO
SIGNIFICANT WEATHER AND/OR OBSTRUCTIONS TO VISIBILITY.

WIZ001-002-006>008-014>016-023>028-220600-
NORTHWEST WISCONSIN

CITY           SKY/WX    TMP DP  RH WIND       PRES   REMARKS
SUPERIOR ARPT  CLEAR     44  44  99 CALM      30.18S
ASHLAND        CLEAR     43  41  93 SW5       30.18S
HAYWARD        CLEAR     40  40 100 CALM      30.20S
SIREN          CLEAR     45  43  95 CALM      30.20F
RICE LAKE      CLEAR     45  44  96 CALM      30.22R
LADYSMITH      CLEAR     42  41  95 CALM      30.21R
EAU CLAIRE     CLEAR     46  44  93 CALM      30.20S
MENOMONIE      CLEAR     49  46  88 W3        30.21R
NEW RICHMOND   CLEAR     46  46  99 CALM      30.22S
OSCEOLA        CLEAR     45  45 100 CALM      30.24S
$$

WIZ003>005-009-010-017-018-220600-
NORTH CENTRAL WISCONSIN

CITY           SKY/WX    TMP DP  RH WIND       PRES   REMARKS
WOODRUFF       CLEAR     39  37  93 CALM      30.17S
RHINELANDER    CLEAR     33  32  96 W3        30.18S FOG
EAGLE RIVER    FOG       32  32 100 CALM      30.16R VSB 1
LAND O LAKES   CLEAR     32  32 100 CALM      30.16S FOG
PHILLIPS       CLEAR     38  38  99 CALM      30.18S
TOMAHAWK       CLEAR     33  32  96 CALM      30.19R
MEDFORD        CLEAR     38  38  99 CALM      30.19S
MERRILL        CLEAR     36  36  99 CALM      30.19S
$$

WIZ029-030-035-036-043>047-220600-
CENTRAL WISCONSIN

CITY           SKY/WX    TMP DP  RH WIND       PRES   REMARKS
WAUSAU         CLEAR     43  40  89 NW5       30.18S
MOSINEE        CLEAR     39  37  93 W5        30.19S
MARSHFIELD     CLEAR     41  39  93 CALM      30.19S
STEVENS POINT  CLEAR     39  37  93 CALM      30.19F
WAUPACA        CLEAR     44  41  89 CALM      30.19S
WAUTOMA        CLEAR     41  40  96 CALM      30.20S
WISC RAPIDS    CLEAR     41  40  96 CALM      30.21S
CAMP DOUGLAS   CLEAR     39  39 100 W3        30.20S FOG
$$

WIZ011>013-019>022-031-037>040-048>050-220600-
NORTHEAST WISCONSIN

CITY           SKY/WX    TMP DP  RH WIND       PRES   REMARKS
ANTIGO         CLEAR     38  37  96 CALM      30.17S
STURGEON BAY   PTCLDY    46  37  71 N8        30.16S
GREEN BAY      CLEAR     41  40  96 NW7       30.17S
MANITOWOC      CLEAR     43  41  93 CALM      30.16S
APPLETON       CLEAR     41  39  93 NW7       30.18S
CLINTONVILLE   CLEAR     39  37  93 CALM      30.18S
OSHKOSH        CLEAR     47  40  76 NW7       30.17S
$$

WIZ032>034-041-042-053>061-220600-
SOUTHWEST WISCONSIN

CITY           SKY/WX    TMP DP  RH WIND       PRES   REMARKS
LA CROSSE      CLEAR     49  45  86 SW5       30.21R
SPARTA         CLEAR     40  39  99 CALM      30.22S
VIROQUA        FAIR      47  43  85 N3        30.21S
BOSCOBEL       PTCLDY    45  43  93 CALM      30.21S FOG
PRAIRIE DU CHI CLEAR     49  46  92 CALM      30.21R
PLATTEVILLE    FAIR      47  44  90 CALM      30.20S
$$

WIZ056-057-062-063-064-067-068-220600-
SOUTH CENTRAL WISCONSIN

CITY           SKY/WX    TMP DP  RH WIND       PRES   REMARKS
BARABOO/DELLS  CLEAR     46  40  78 CALM      30.20S
LONE ROCK      CLEAR     46  41  82 CALM      30.20S
WATERTOWN      CLEAR     46  43  89 N5        30.16S
MADISON        CLEAR     47  41  80 N6        30.18S
MIDDLETON      FAIR      47  44  89 N5        30.20R
MONROE         CLEAR     50  45  81 N8        30.17S
JANESVILLE     CLEAR     46  43  87 CALM      30.16S
$$

WIZ051-052-058>065-066-070>072-220600-
SOUTHEAST WISCONSIN

CITY           SKY/WX    TMP DP  RH WIND       PRES   REMARKS
MILWAUKEE      CLEAR     49  40  71 N6        30.15S
WAUKESHA       CLEAR     45  39  81 CALM      30.17R
MILWAUKEE/TIMM CLEAR     43  39  87 NW5       30.17R
RACINE         CLEAR     49  42  77 NW6       30.17R
BURLINGTON     CLEAR     39  39  99 CALM      30.16S
KENOSHA        CLEAR     47  43  86 N6        30.15S
FOND DU LAC    CLEAR     45  38  76 NW7       30.18R
SHEBOYGAN      CLEAR     43  39  86 NW5       30.17R
WEST BEND      CLEAR     45  39  81 NW3       30.17R
JUNEAU         CLEAR     45  40  82 N8        30.19R
$$

LSZ147-162-220600-
LAKE SUPERIOR

STATION/POSITION TIME  TEMP    WIND        PRES    WAVE
                       AIR SEA DIR/SP/G            HT/PER
                 (UTC) (F)     (DEG/KT/KT) (MB)    (FT/S)
W MID LAKE BUOY  0450   49 46  280/ 10/ 10 1020.4F   2/ 6
DEVILS ISLAND    0500   52     220/  7/  7 1021.4F
PORT WING        0400   46     170/  6/  7 1021.7F
SAXON HARBOR     0440   46     180/  6/  8 1021.7S
$$

LMZ867-665-643>646-220600-
LAKE MICHIGAN

STATION/POSITION TIME  TEMP    WIND        PRES    WAVE
                       AIR SEA DIR/SP/G            HT/PER
                 (UTC) (F)     (DEG/KT/KT) (MB)    (FT/S)
N MID LAKE BUOY  0450   48 57  340/ 19/ 23 1020.1F   3/ 5
NORTHPORT PIER   0440   49     340/ 17/ 22 1020.7R
KEWAUNEE LAKESHO 0400   44     320/  3/  5 1020.1R
SHEBOYGAN LAKESH 0500   47 51  320/  6/  7 1022.0R
PORT WASHINGTON  0400   49     300/  3/  4 1021.3
ATWATER BUOY     0500   52     330/ 10/ 14 1022.0R
MILWAUKEE LAKESH 0400   52     350/  9/ 13   N/A
S MID LAKE BUOY  0450   54 61  350/ 19/ 21 1020.3R   7/ 6
KENOSHA   LAKESH 0500   51     330/  7/ 11 1020.7S
$$

TC  - TEMPERATURE IN CELSIUS
VSB - VISIBILITY IN STATUTE MILES
WCI - WIND CHILL INDEX
HX  - HEAT INDEX




USA.gov is the U.S. government's official web portal to all federal, state and local government web resources and services.